BEEAGLESAT

Last updated on Sat Apr 27 2019 03:09:14 GMT+0000 (Coordinated Universal Time)

1 42736U 98067MR 19116.58349394 .05344197 12378-4 56382-3 0 9990 2 42736 51.6116 172.4218 0006034 335.7210 140.8917 16.36759636110007

Satellite not in orbit

BEEAGLESAT